Вернуться в каталог

STARLINK-37124

АктивенСвязьVLEO
NORAD 68283·PAYLOAD·🇺🇸 United States

Запущен Mar 19, 2026 с Vandenberg Space Force Base

Loading…

Ближайшие Пролёты (ближайшие 24 часа)

TLE

СвежийSource: CelesTrak SupGP

Эпоха: Sep 15, 2026, 04:10 UTC

1 68283C 26055X   26258.17409722  .00046108  00000+0  13623-2 0  2583
2 68283  53.1567 156.5643 0001037  93.8569  64.4799 15.34366242    13

Отслеживайте STARLINK-37124 в реальном времени с AllMySat

Download on the App Store